User: anonymous   Login
Location: Wilsall
(45.9940°N, 110.6590°W)
Time: 05:42:59
(UTC-07:00)
Language:

GP-B - Orbit

View from above orbital plane
View from above orbital plane
View from above satellite
View from above satellite

Ground track
Ground track

The orbit data is extracted from the following two-line orbital elements,

1 28230U 04014A   15060.23723775  .00000871  00000-0  11869-3 0  9996
2 28230 089.8815 136.3490 0001841 086.0715 274.0718 14.78001331585154
Epoch (UTC): 01 March 2015 05:41:37
Eccentricity: 0.0001841
inclination: 89.8815°
perigee height: 634 km
apogee height: 637 km
right ascension of ascending node: 136.3490°
argument of perigee: 86.0715°
revolutions per day: 14.78001331
mean anomaly at epoch: 274.0718°
orbit number at epoch: 58515

The dashed part of the orbit path shows where the satellite is in the earth's shadow,  

DLR